User: anonymous   Login
Location: Newark
(15.4608°S, 41.1635°W)
Time: 20:17:53
(UTC+00:00)
Language:

A-11 Canister half - Orbit

View from above orbital plane
View from above orbital plane
View from above satellite
View from above satellite

Ground track
Ground track

The orbit data is extracted from the following two-line orbital elements,

1 00053U 60009E   21209.72270986 -.00000009  00000-0  74177-3 0  9997
2 00053  47.2773  86.1101 0097039 201.7407 157.9247 12.17256324718055
Epoch (UTC): 28 July 2021 17:20:42
Eccentricity: 0.0097039
inclination: 47.2773°
perigee height: 1527 km
apogee height: 1682 km
right ascension of ascending node: 86.1101°
argument of perigee: 201.7407°
revolutions per day: 12.17256324
mean anomaly at epoch: 157.9247°
orbit number at epoch: 71805

The dashed part of the orbit path shows where the satellite is in the earth's shadow,  

DLR